Weather History for Renton, WA

Change the Weather History Date:

Saturday, June 7, 2014

  Actual Average Record
Temperature  
Mean Temperature 64 °F -  
Max Temperature 73 °F 67 °F 91 °F (2003)
Min Temperature 55 °F 51 °F 45 °F (2002)
Degree Days  
Heating Degree Days 1    
Growing Degree Days 14 (Base 50)    
Moisture  
Dew Point 51 °F    
Average Humidity 63    
Maximum Humidity 88    
Minimum Humidity 43    
Precipitation  
Precipitation 0.00 in - - ()
Sea Level Pressure  
Sea Level Pressure 30.17 in    
Wind  
Wind Speed 6 mph (NNW)    
Max Wind Speed 10 mph    
Max Gust Speed -    
Visibility 10 miles    
Events      
Averages and records for this station are not official NWS values.
T = Trace of Precipitation, MM = Missing Value Source: NWS Daily Summary

Daily Weather History Graph

Daily Weather History Graph

Search for Another Location

Airport:

Trip Planner

Search our weather history database for the weather conditions in past years. The results will help you decide how hot, cold, wet, or windy it might be!

Date:

Astronomy

Jun. 07, 2014 Rise Set
Actual Time 5:12 AM PDT 9:03 PM PDT
Civil Twilight 4:32 AM PDT 9:43 PM PDT
Nautical Twilight 3:38 AM PDT 10:37 PM PDT
Astronomical Twilight 2:17 AM PDT 11:59 PM PDT
Moon 3:04 PM PDT (6/7) 2:00 AM PDT (6/7)
Length of Visible Light 17h 10m
Length of Day
15h 50m
Waxing Gibbous, 69% of the Moon is Illuminated
Jun 7
Waxing Gibbous
Jun 12
Full
Jun 19
Last Quarter
Jun 27
New
Jul 5
First Quarter

Hourly Weather History & Observations

Time (PDT) Temp. Dew Point Humidity Pressure Visibility Wind Dir Wind Speed Gust Speed Precip Events Conditions
12:53 AM 61.0 °F 48.0 °F 62% 30.12 in 10.0 mi Variable 4.6 mph - N/A   Clear
1:53 AM 60.1 °F 50.0 °F 69% 30.13 in 10.0 mi NW 10.4 mph - N/A   Clear
2:53 AM 57.9 °F 51.1 °F 78% 30.14 in 10.0 mi NNW 6.9 mph - N/A   Clear
3:53 AM 57.9 °F 51.1 °F 78% 30.15 in 10.0 mi NNW 6.9 mph - N/A   Partly Cloudy
5:53 AM 55.4 °F 51.8 °F 88% 30.16 in 9.0 mi North 3.5 mph - N/A   Clear
6:53 AM 55.9 °F 50.0 °F 80% 30.19 in 10.0 mi ESE 4.6 mph - N/A   Clear
7:53 AM 57.0 °F 50.0 °F 77% 30.20 in 10.0 mi SSE 4.6 mph - N/A   Clear
8:53 AM 59.0 °F 51.1 °F 75% 30.20 in 10.0 mi Variable 3.5 mph - N/A   Clear
9:53 AM 62.1 °F 51.1 °F 67% 30.21 in 10.0 mi Calm Calm - N/A   Partly Cloudy
10:53 AM 64.9 °F 52.0 °F 63% 30.20 in 10.0 mi North 6.9 mph - N/A   Clear
11:53 AM 66.9 °F 52.0 °F 59% 30.20 in 10.0 mi NNW 4.6 mph - N/A   Clear
12:53 PM 68.0 °F 51.1 °F 55% 30.19 in 10.0 mi Variable 5.8 mph - N/A   Clear
1:53 PM 70.0 °F 52.0 °F 53% 30.18 in 10.0 mi NNW 5.8 mph - N/A   Clear
2:53 PM 71.1 °F 51.1 °F 49% 30.17 in 10.0 mi NNW 5.8 mph - N/A   Clear
3:53 PM 73.0 °F 51.1 °F 46% 30.17 in 10.0 mi NW 9.2 mph - N/A   Clear
4:53 PM 73.9 °F 50.0 °F 43% 30.17 in 10.0 mi NW 9.2 mph - N/A   Clear
5:53 PM 73.9 °F 50.0 °F 43% 30.16 in 10.0 mi NNW 9.2 mph - N/A   Clear
6:53 PM 73.0 °F 53.1 °F 49% 30.16 in 10.0 mi NW 8.1 mph - N/A   Partly Cloudy
7:53 PM 70.0 °F 54.0 °F 57% 30.16 in 10.0 mi Variable 5.8 mph - N/A   Clear
8:53 PM 66.9 °F 52.0 °F 59% 30.17 in 10.0 mi NW 9.2 mph - N/A   Clear
9:53 PM 64.9 °F 53.1 °F 65% 30.18 in 10.0 mi NNE 3.5 mph - N/A   Clear
10:53 PM 64.0 °F 52.0 °F 65% 30.19 in 10.0 mi NW 6.9 mph - N/A   Clear
11:53 PM 62.1 °F 52.0 °F 70% 30.19 in 10.0 mi NNW 6.9 mph - N/A   Clear